Showing default

CONNECTA IOT-4, 60524

Orbit data source: Space-Track

CONNECTA IOT-4, 60524 is a payload satellite owned by Plan-S (TR) in SSO that was launched on Fri, 16 Aug 2024 UTC via an FALCON 9 launch vehicle from the Air Force Western Test Range (AFWTR). Payload-class satellites include a variety of spacecraft equipped with specific instruments for various scientific and technological missions. These include communications satellites like Starlink; space stations such as the ISS; scientific satellites like the Hubble; Earth observation satellites from companies like Planet Labs, Umbra, and HawkEye 360; GPS; miniature CubeSats for education and research; and military/defense satellites.

Loading next visibility...
Identifier
60524, 2024-149BJ
Orbit
SSO
Country
Flag of TRTR / TURK
Related business
Manufacturer
Plan-S
Mission
Operational Commercial Communications
Bus & Motor
CUBESAT 6U, Unknown motor
Mass
10 kg wet, 10 kg dry
Launch date (UTC)
2024-08-16 (2 years ago)
Launch vehicle
FALCON 9
Launch site
Air Force Western Test Range (AFWTR)
Object type
Payload
Rocket body
Debris
Shape & HBR
Box, 2.2 m
Radar Cross Section
0.080 m², Medium (>0.1 m² and < 1m²)

Expand to show TLE details & history
Last TLE update: 7 hours ago

TLE from 7 hours ago
0 CONNECTA IOT-4
1 60524U 24149BJ  26265.23034702  .00022006  00000-0  45253-3 0  9991
2 60524  97.3745 350.9717 0003905 296.4987  63.5862 15.45979531117309
Epoch: 2026-09-22T05:31Z
TLE epoch observation values (Epoch: 2026-09-22T05:31:41.982Z)
Latitude
0.00002°
Longitude
-93.05203°
Altitude
430.446 km
Speed
7.654 km/s
True Right ascension
23h 23m 53s
True Declination
0° 00' 00"
Sunlit
Object was in full shadow at epoch
Visualization orbit readout
Latitude
Unknown
Longitude
Unknown
Altitude
Unknown
Speed
Unknown
Apparent Right ascension
Unknown
Apparent Declination
Unknown
Sunlit
N/A
Visualization observer readout
Local Sidereal Time
06:03:20
Azimuth
Unknown
Elevation
Unknown
Doppler factor
Unknown
Orbital elements
Apogee altitude
428.088 km
Perigee altitude
422.775 km
Semi-major axis
6,803.568 km
Eccentricity
0.00039
Inclination
97.3745°
RAAN
350.9717°
Arg. of periapsis
296.4987°
True anomaly
63.62629°
Mean anomaly
63.5862°
Eccentric anomaly
63.60624°
Mean motion
3.86757 °/min
Orbital period
93.08 mins
BSTAR
0.00045253
Loading maneuver chart data...
Computing Atmospheric mass density...

Documentation

Showing up to 5 results
|